owner,sensor,date,latitude,longitude,sea_surface_height_above_sea_level,qcFlag 
TCOON,ioos:station:TCOON:003:1,2016-10-01T00:18:00Z,26.8015,-97.4706,1.296,1111122 
TCOON,ioos:station:TCOON:003:1,2016-10-01T01:18:00Z,26.8015,-97.4706,1.298,1111122 
TCOON,ioos:station:TCOON:003:1,2016-10-01T02:18:00Z,26.8015,-97.4706,1.303,1111122 
TCOON,ioos:station:TCOON:003:1,2016-10-01T03:18:00Z,26.8015,-97.4706,1.306,1111122 
TCOON,ioos:station:TCOON:003:1,2016-10-01T04:12:00Z,26.8015,-97.4706,1.305,1111122 
TCOON,ioos:station:TCOON:003:1,2016-10-01T05:18:00Z,26.8015,-97.4706,1.301,1111122 
TCOON,ioos:station:TCOON:003:1,2016-10-01T06:30:00Z,26.8015,-97.4706,1.303,1111122 
TCOON,ioos:station:TCOON:003:1,2016-10-01T07:18:00Z,26.8015,-97.4706,1.306,1111122 
TCOON,ioos:station:TCOON:003:1,2016-10-01T08:18:00Z,26.8015,-97.4706,1.309,1111122 
TCOON,ioos:station:TCOON:003:1,2016-10-01T09:18:00Z,26.8015,-97.4706,1.316,1111122 
TCOON,ioos:station:TCOON:003:1,2016-10-01T10:18:00Z,26.8015,-97.4706,1.321,1111122 
TCOON,ioos:station:TCOON:003:1,2016-10-01T11:18:00Z,26.8015,-97.4706,1.323,1111122 
TCOON,ioos:station:TCOON:003:1,2016-10-01T12:18:00Z,26.8015,-97.4706,1.318,1111122 
TCOON,ioos:station:TCOON:003:1,2016-10-01T13:18:00Z,26.8015,-97.4706,1.312,1111122 
TCOON,ioos:station:TCOON:003:1,2016-10-01T14:18:00Z,26.8015,-97.4706,1.309,1111122 
TCOON,ioos:station:TCOON:003:1,2016-10-01T15:18:00Z,26.8015,-97.4706,1.3,1111122 
TCOON,ioos:station:TCOON:003:1,2016-10-01T16:18:00Z,26.8015,-97.4706,1.303,1111122 
TCOON,ioos:station:TCOON:003:1,2016-10-01T17:12:00Z,26.8015,-97.4706,1.307,1111122 
TCOON,ioos:station:TCOON:003:1,2016-10-01T18:18:00Z,26.8015,-97.4706,1.317,1111122 
TCOON,ioos:station:TCOON:003:1,2016-10-01T19:18:00Z,26.8015,-97.4706,1.313,1111122 
TCOON,ioos:station:TCOON:003:1,2016-10-01T20:18:00Z,26.8015,-97.4706,1.315,1111122 
TCOON,ioos:station:TCOON:003:1,2016-10-01T21:18:00Z,26.8015,-97.4706,1.345,1111122 
TCOON,ioos:station:TCOON:003:1,2016-10-01T22:18:00Z,26.8015,-97.4706,1.329,1111122 
TCOON,ioos:station:TCOON:003:1,2016-10-01T23:18:00Z,26.8015,-97.4706,1.329,1111122 
TCOON,ioos:station:TCOON:003:1,2016-10-02T00:18:00Z,26.8015,-97.4706,1.326,1111122 
TCOON,ioos:station:TCOON:003:1,2016-10-02T01:18:00Z,26.8015,-97.4706,1.324,1111122 
TCOON,ioos:station:TCOON:003:1,2016-10-02T02:18:00Z,26.8015,-97.4706,1.324,1111122 
TCOON,ioos:station:TCOON:003:1,2016-10-02T03:12:00Z,26.8015,-97.4706,1.326,1111122 
TCOON,ioos:station:TCOON:003:1,2016-10-02T04:18:00Z,26.8015,-97.4706,1.326,1111122 
TCOON,ioos:station:TCOON:003:1,2016-10-02T05:18:00Z,26.8015,-97.4706,1.324,1111122 
TCOON,ioos:station:TCOON:003:1,2016-10-02T06:18:00Z,26.8015,-97.4706,1.32,1111122 
TCOON,ioos:station:TCOON:003:1,2016-10-02T07:12:00Z,26.8015,-97.4706,1.312,1111122 
TCOON,ioos:station:TCOON:003:1,2016-10-02T08:18:00Z,26.8015,-97.4706,1.305,1111122 
TCOON,ioos:station:TCOON:003:1,2016-10-02T09:18:00Z,26.8015,-97.4706,1.297,1111122 
TCOON,ioos:station:TCOON:003:1,2016-10-02T10:18:00Z,26.8015,-97.4706,1.291,1111122 
TCOON,ioos:station:TCOON:003:1,2016-10-02T11:18:00Z,26.8015,-97.4706,1.291,1111122 
TCOON,ioos:station:TCOON:003:1,2016-10-02T12:18:00Z,26.8015,-97.4706,1.289,1111122 
TCOON,ioos:station:TCOON:003:1,2016-10-02T13:18:00Z,26.8015,-97.4706,1.289,1111122 
TCOON,ioos:station:TCOON:003:1,2016-10-02T14:18:00Z,26.8015,-97.4706,1.285,1111122 
TCOON,ioos:station:TCOON:003:1,2016-10-02T15:18:00Z,26.8015,-97.4706,1.282,1111122 
TCOON,ioos:station:TCOON:003:1,2016-10-02T16:18:00Z,26.8015,-97.4706,1.273,1111122 
TCOON,ioos:station:TCOON:003:1,2016-10-02T17:18:00Z,26.8015,-97.4706,1.267,1111122 
TCOON,ioos:station:TCOON:003:1,2016-10-02T18:18:00Z,26.8015,-97.4706,1.245,1111122 
TCOON,ioos:station:TCOON:003:1,2016-10-02T19:18:00Z,26.8015,-97.4706,1.257,1111122 
TCOON,ioos:station:TCOON:003:1,2016-10-02T20:18:00Z,26.8015,-97.4706,1.258,1111122 
TCOON,ioos:station:TCOON:003:1,2016-10-02T21:18:00Z,26.8015,-97.4706,1.263,1111122 
TCOON,ioos:station:TCOON:003:1,2016-10-02T22:12:00Z,26.8015,-97.4706,1.269,1111122 
TCOON,ioos:station:TCOON:003:1,2016-10-02T23:18:00Z,26.8015,-97.4706,1.286,1111122 
TCOON,ioos:station:TCOON:003:1,2016-10-03T00:18:00Z,26.8015,-97.4706,1.286,1111122 
TCOON,ioos:station:TCOON:003:1,2016-10-03T01:30:00Z,26.8015,-97.4706,1.276,1111122 
TCOON,ioos:station:TCOON:003:1,2016-10-03T02:30:00Z,26.8015,-97.4706,1.275,1111122 
TCOON,ioos:station:TCOON:003:1,2016-10-03T03:18:00Z,26.8015,-97.4706,1.287,1111122 
TCOON,ioos:station:TCOON:003:1,2016-10-03T04:18:00Z,26.8015,-97.4706,1.299,1111122 
TCOON,ioos:station:TCOON:003:1,2016-10-03T05:18:00Z,26.8015,-97.4706,1.299,1111122 
TCOON,ioos:station:TCOON:003:1,2016-10-03T06:18:00Z,26.8015,-97.4706,1.299,1111122 
TCOON,ioos:station:TCOON:003:1,2016-10-03T07:18:00Z,26.8015,-97.4706,1.305,1111122 
TCOON,ioos:station:TCOON:003:1,2016-10-03T08:18:00Z,26.8015,-97.4706,1.313,1111122 
TCOON,ioos:station:TCOON:003:1,2016-10-03T09:18:00Z,26.8015,-97.4706,1.311,1111122 
TCOON,ioos:station:TCOON:003:1,2016-10-03T10:18:00Z,26.8015,-97.4706,1.31,1111122 
TCOON,ioos:station:TCOON:003:1,2016-10-03T11:18:00Z,26.8015,-97.4706,1.309,1111122 
TCOON,ioos:station:TCOON:003:1,2016-10-03T12:18:00Z,26.8015,-97.4706,1.306,1111122 
TCOON,ioos:station:TCOON:003:1,2016-10-03T13:18:00Z,26.8015,-97.4706,1.298,1111122 
TCOON,ioos:station:TCOON:003:1,2016-10-03T14:18:00Z,26.8015,-97.4706,1.292,1111122 
TCOON,ioos:station:TCOON:003:1,2016-10-03T15:18:00Z,26.8015,-97.4706,1.292,1111122 
TCOON,ioos:station:TCOON:003:1,2016-10-03T16:18:00Z,26.8015,-97.4706,1.303,1111122 
TCOON,ioos:station:TCOON:003:1,2016-10-03T17:42:00Z,26.8015,-97.4706,1.314,1111122 
TCOON,ioos:station:TCOON:003:1,2016-10-03T18:18:00Z,26.8015,-97.4706,1.316,1111122 
TCOON,ioos:station:TCOON:003:1,2016-10-03T19:18:00Z,26.8015,-97.4706,1.315,1111122 
TCOON,ioos:station:TCOON:003:1,2016-10-03T20:18:00Z,26.8015,-97.4706,1.326,1111122 
TCOON,ioos:station:TCOON:003:1,2016-10-03T21:18:00Z,26.8015,-97.4706,1.334,1111122 
TCOON,ioos:station:TCOON:003:1,2016-10-03T22:18:00Z,26.8015,-97.4706,1.342,1111122 
TCOON,ioos:station:TCOON:003:1,2016-10-03T23:18:00Z,26.8015,-97.4706,1.352,1111122 
TCOON,ioos:station:TCOON:003:1,2016-10-04T00:18:00Z,26.8015,-97.4706,1.36,1111122 
TCOON,ioos:station:TCOON:003:1,2016-10-04T01:18:00Z,26.8015,-97.4706,1.367,1111122 
TCOON,ioos:station:TCOON:003:1,2016-10-04T02:18:00Z,26.8015,-97.4706,1.372,1111122 
TCOON,ioos:station:TCOON:003:1,2016-10-04T03:18:00Z,26.8015,-97.4706,1.376,1111122 
TCOON,ioos:station:TCOON:003:1,2016-10-04T04:18:00Z,26.8015,-97.4706,1.379,1111122 
TCOON,ioos:station:TCOON:003:1,2016-10-04T05:18:00Z,26.8015,-97.4706,1.382,1111122 
TCOON,ioos:station:TCOON:003:1,2016-10-04T06:18:00Z,26.8015,-97.4706,1.385,1111122 
TCOON,ioos:station:TCOON:003:1,2016-10-04T07:18:00Z,26.8015,-97.4706,1.391,1111122 
TCOON,ioos:station:TCOON:003:1,2016-10-04T08:18:00Z,26.8015,-97.4706,1.396,1111122 
TCOON,ioos:station:TCOON:003:1,2016-10-04T09:18:00Z,26.8015,-97.4706,1.396,1111122 
TCOON,ioos:station:TCOON:003:1,2016-10-04T10:18:00Z,26.8015,-97.4706,1.38,1111122 
TCOON,ioos:station:TCOON:003:1,2016-10-04T11:18:00Z,26.8015,-97.4706,1.366,1111122 
TCOON,ioos:station:TCOON:003:1,2016-10-04T12:18:00Z,26.8015,-97.4706,1.367,1111122 
TCOON,ioos:station:TCOON:003:1,2016-10-04T13:18:00Z,26.8015,-97.4706,1.376,1111122 
TCOON,ioos:station:TCOON:003:1,2016-10-04T14:18:00Z,26.8015,-97.4706,1.385,1111122 
TCOON,ioos:station:TCOON:003:1,2016-10-04T15:18:00Z,26.8015,-97.4706,1.383,1111122 
TCOON,ioos:station:TCOON:003:1,2016-10-04T16:18:00Z,26.8015,-97.4706,1.383,1111122 
TCOON,ioos:station:TCOON:003:1,2016-10-04T18:18:00Z,26.8015,-97.4706,1.399,1111122 
TCOON,ioos:station:TCOON:003:1,2016-10-04T19:18:00Z,26.8015,-97.4706,1.4,1111122 
TCOON,ioos:station:TCOON:003:1,2016-10-04T20:18:00Z,26.8015,-97.4706,1.408,1111122 
TCOON,ioos:station:TCOON:003:1,2016-10-04T21:18:00Z,26.8015,-97.4706,1.408,1111122 
TCOON,ioos:station:TCOON:003:1,2016-10-04T22:18:00Z,26.8015,-97.4706,1.415,1111122 
TCOON,ioos:station:TCOON:003:1,2016-10-04T23:18:00Z,26.8015,-97.4706,1.431,1111122 
TCOON,ioos:station:TCOON:003:1,2016-10-05T00:18:00Z,26.8015,-97.4706,1.446,1111122 
TCOON,ioos:station:TCOON:003:1,2016-10-05T01:18:00Z,26.8015,-97.4706,1.455,1111122 
TCOON,ioos:station:TCOON:003:1,2016-10-05T02:18:00Z,26.8015,-97.4706,1.455,1111122 
TCOON,ioos:station:TCOON:003:1,2016-10-05T03:18:00Z,26.8015,-97.4706,1.455,1111122 
TCOON,ioos:station:TCOON:003:1,2016-10-05T04:18:00Z,26.8015,-97.4706,1.458,1111122 
TCOON,ioos:station:TCOON:003:1,2016-10-05T05:18:00Z,26.8015,-97.4706,1.463,1111122 
TCOON,ioos:station:TCOON:003:1,2016-10-05T06:24:00Z,26.8015,-97.4706,1.469,1111122 
TCOON,ioos:station:TCOON:003:1,2016-10-05T07:18:00Z,26.8015,-97.4706,1.478,1111122 
TCOON,ioos:station:TCOON:003:1,2016-10-05T08:18:00Z,26.8015,-97.4706,1.485,1111122 
TCOON,ioos:station:TCOON:003:1,2016-10-05T09:18:00Z,26.8015,-97.4706,1.464,1111122 
TCOON,ioos:station:TCOON:003:1,2016-10-05T10:18:00Z,26.8015,-97.4706,1.436,1111122 
TCOON,ioos:station:TCOON:003:1,2016-10-05T11:18:00Z,26.8015,-97.4706,1.42,1111122 
TCOON,ioos:station:TCOON:003:1,2016-10-05T12:18:00Z,26.8015,-97.4706,1.416,1111122 
TCOON,ioos:station:TCOON:003:1,2016-10-05T13:18:00Z,26.8015,-97.4706,1.421,1111122 
TCOON,ioos:station:TCOON:003:1,2016-10-05T14:18:00Z,26.8015,-97.4706,1.421,1111122 
TCOON,ioos:station:TCOON:003:1,2016-10-05T15:18:00Z,26.8015,-97.4706,1.421,1111122 
TCOON,ioos:station:TCOON:003:1,2016-10-05T16:18:00Z,26.8015,-97.4706,1.416,1111122 
TCOON,ioos:station:TCOON:003:1,2016-10-05T17:18:00Z,26.8015,-97.4706,1.412,1111122 
TCOON,ioos:station:TCOON:003:1,2016-10-05T18:18:00Z,26.8015,-97.4706,1.414,1111122 
TCOON,ioos:station:TCOON:003:1,2016-10-05T19:18:00Z,26.8015,-97.4706,1.41,1111122 
TCOON,ioos:station:TCOON:003:1,2016-10-05T20:18:00Z,26.8015,-97.4706,1.423,1111122 
TCOON,ioos:station:TCOON:003:1,2016-10-05T21:18:00Z,26.8015,-97.4706,1.428,1111122 
TCOON,ioos:station:TCOON:003:1,2016-10-05T22:18:00Z,26.8015,-97.4706,1.432,1111122 
TCOON,ioos:station:TCOON:003:1,2016-10-05T23:18:00Z,26.8015,-97.4706,1.437,1111122 
TCOON,ioos:station:TCOON:003:1,2016-10-06T00:18:00Z,26.8015,-97.4706,1.443,1111122 
TCOON,ioos:station:TCOON:003:1,2016-10-06T01:18:00Z,26.8015,-97.4706,1.444,1111122 
TCOON,ioos:station:TCOON:003:1,2016-10-06T02:18:00Z,26.8015,-97.4706,1.445,1111122 
TCOON,ioos:station:TCOON:003:1,2016-10-06T03:18:00Z,26.8015,-97.4706,1.447,1111122 
TCOON,ioos:station:TCOON:003:1,2016-10-06T04:18:00Z,26.8015,-97.4706,1.446,1111122 
TCOON,ioos:station:TCOON:003:1,2016-10-06T05:12:00Z,26.8015,-97.4706,1.448,1111122 
TCOON,ioos:station:TCOON:003:1,2016-10-06T06:18:00Z,26.8015,-97.4706,1.447,1111122 
TCOON,ioos:station:TCOON:003:1,2016-10-06T07:18:00Z,26.8015,-97.4706,1.448,1111122 
TCOON,ioos:station:TCOON:003:1,2016-10-06T08:12:00Z,26.8015,-97.4706,1.444,1111122 
TCOON,ioos:station:TCOON:003:1,2016-10-06T09:18:00Z,26.8015,-97.4706,1.438,1111122 
TCOON,ioos:station:TCOON:003:1,2016-10-06T10:18:00Z,26.8015,-97.4706,1.431,1111122 
TCOON,ioos:station:TCOON:003:1,2016-10-06T11:18:00Z,26.8015,-97.4706,1.432,1111122 
TCOON,ioos:station:TCOON:003:1,2016-10-06T12:12:00Z,26.8015,-97.4706,1.411,1111122 
TCOON,ioos:station:TCOON:003:1,2016-10-06T13:18:00Z,26.8015,-97.4706,1.409,1111122 
TCOON,ioos:station:TCOON:003:1,2016-10-06T14:18:00Z,26.8015,-97.4706,1.398,1111122 
TCOON,ioos:station:TCOON:003:1,2016-10-06T15:18:00Z,26.8015,-97.4706,1.394,1111122 
TCOON,ioos:station:TCOON:003:1,2016-10-06T16:18:00Z,26.8015,-97.4706,1.397,1111122 
TCOON,ioos:station:TCOON:003:1,2016-10-06T17:18:00Z,26.8015,-97.4706,1.402,1111122 
TCOON,ioos:station:TCOON:003:1,2016-10-06T18:18:00Z,26.8015,-97.4706,1.408,1111122 
TCOON,ioos:station:TCOON:003:1,2016-10-06T19:18:00Z,26.8015,-97.4706,1.414,1111122 
TCOON,ioos:station:TCOON:003:1,2016-10-06T20:18:00Z,26.8015,-97.4706,1.426,1111122 
TCOON,ioos:station:TCOON:003:1,2016-10-06T21:18:00Z,26.8015,-97.4706,1.436,1111122 
TCOON,ioos:station:TCOON:003:1,2016-10-06T22:18:00Z,26.8015,-97.4706,1.438,1111122 
TCOON,ioos:station:TCOON:003:1,2016-10-06T23:18:00Z,26.8015,-97.4706,1.437,1111122 
TCOON,ioos:station:TCOON:003:1,2016-10-07T00:18:00Z,26.8015,-97.4706,1.433,1111122 
TCOON,ioos:station:TCOON:003:1,2016-10-07T01:18:00Z,26.8015,-97.4706,1.432,1111122 
TCOON,ioos:station:TCOON:003:1,2016-10-07T02:18:00Z,26.8015,-97.4706,1.434,1111122 
TCOON,ioos:station:TCOON:003:1,2016-10-07T03:18:00Z,26.8015,-97.4706,1.441,1111122 
TCOON,ioos:station:TCOON:003:1,2016-10-07T04:18:00Z,26.8015,-97.4706,1.443,1111122 
TCOON,ioos:station:TCOON:003:1,2016-10-07T05:18:00Z,26.8015,-97.4706,1.437,1111122 
TCOON,ioos:station:TCOON:003:1,2016-10-07T06:18:00Z,26.8015,-97.4706,1.435,1111122 
TCOON,ioos:station:TCOON:003:1,2016-10-07T07:18:00Z,26.8015,-97.4706,1.437,1111122 
TCOON,ioos:station:TCOON:003:1,2016-10-07T08:18:00Z,26.8015,-97.4706,1.434,1111122 
TCOON,ioos:station:TCOON:003:1,2016-10-07T09:18:00Z,26.8015,-97.4706,1.437,1111122 
TCOON,ioos:station:TCOON:003:1,2016-10-07T10:18:00Z,26.8015,-97.4706,1.426,1111122 
TCOON,ioos:station:TCOON:003:1,2016-10-07T11:18:00Z,26.8015,-97.4706,1.422,1111122 
TCOON,ioos:station:TCOON:003:1,2016-10-07T12:18:00Z,26.8015,-97.4706,1.413,1111122 
TCOON,ioos:station:TCOON:003:1,2016-10-07T13:18:00Z,26.8015,-97.4706,1.405,1111122 
TCOON,ioos:station:TCOON:003:1,2016-10-07T15:18:00Z,26.8015,-97.4706,1.376,1111122 
TCOON,ioos:station:TCOON:003:1,2016-10-07T16:18:00Z,26.8015,-97.4706,1.379,1111122 
TCOON,ioos:station:TCOON:003:1,2016-10-07T18:18:00Z,26.8015,-97.4706,1.39,1111122 
TCOON,ioos:station:TCOON:003:1,2016-10-07T19:18:00Z,26.8015,-97.4706,1.387,1111122 
TCOON,ioos:station:TCOON:003:1,2016-10-07T20:18:00Z,26.8015,-97.4706,1.385,1111122 
TCOON,ioos:station:TCOON:003:1,2016-10-07T21:18:00Z,26.8015,-97.4706,1.373,1111122 
TCOON,ioos:station:TCOON:003:1,2016-10-07T22:18:00Z,26.8015,-97.4706,1.374,1111122 
TCOON,ioos:station:TCOON:003:1,2016-10-07T23:18:00Z,26.8015,-97.4706,1.387,1111122 
TCOON,ioos:station:TCOON:003:1,2016-10-08T00:18:00Z,26.8015,-97.4706,1.382,1111122 
TCOON,ioos:station:TCOON:003:1,2016-10-08T01:18:00Z,26.8015,-97.4706,1.366,1111122 
TCOON,ioos:station:TCOON:003:1,2016-10-08T02:18:00Z,26.8015,-97.4706,1.365,1111122 
TCOON,ioos:station:TCOON:003:1,2016-10-08T03:18:00Z,26.8015,-97.4706,1.373,1111122 
TCOON,ioos:station:TCOON:003:1,2016-10-08T04:18:00Z,26.8015,-97.4706,1.384,1111122 
TCOON,ioos:station:TCOON:003:1,2016-10-08T05:18:00Z,26.8015,-97.4706,1.391,1111122 
TCOON,ioos:station:TCOON:003:1,2016-10-08T06:18:00Z,26.8015,-97.4706,1.39,1111122 
TCOON,ioos:station:TCOON:003:1,2016-10-08T07:18:00Z,26.8015,-97.4706,1.392,1111122 
TCOON,ioos:station:TCOON:003:1,2016-10-08T08:18:00Z,26.8015,-97.4706,1.396,1111122 
TCOON,ioos:station:TCOON:003:1,2016-10-08T09:18:00Z,26.8015,-97.4706,1.369,1111122 
TCOON,ioos:station:TCOON:003:1,2016-10-08T10:18:00Z,26.8015,-97.4706,1.324,1111122 
TCOON,ioos:station:TCOON:003:1,2016-10-08T11:12:00Z,26.8015,-97.4706,1.29,1111122 
TCOON,ioos:station:TCOON:003:1,2016-10-08T12:18:00Z,26.8015,-97.4706,1.255,1111122 
TCOON,ioos:station:TCOON:003:1,2016-10-08T13:18:00Z,26.8015,-97.4706,1.239,1111122 
TCOON,ioos:station:TCOON:003:1,2016-10-08T14:18:00Z,26.8015,-97.4706,1.239,1111122 
TCOON,ioos:station:TCOON:003:1,2016-10-08T15:18:00Z,26.8015,-97.4706,1.245,1111122 
TCOON,ioos:station:TCOON:003:1,2016-10-08T16:18:00Z,26.8015,-97.4706,1.247,1111122 
TCOON,ioos:station:TCOON:003:1,2016-10-08T17:18:00Z,26.8015,-97.4706,1.266,1111122 
TCOON,ioos:station:TCOON:003:1,2016-10-08T18:18:00Z,26.8015,-97.4706,1.279,1111122 
TCOON,ioos:station:TCOON:003:1,2016-10-08T19:18:00Z,26.8015,-97.4706,1.289,1111122 
TCOON,ioos:station:TCOON:003:1,2016-10-08T20:18:00Z,26.8015,-97.4706,1.297,1111122 
TCOON,ioos:station:TCOON:003:1,2016-10-08T21:18:00Z,26.8015,-97.4706,1.297,1111122 
TCOON,ioos:station:TCOON:003:1,2016-10-08T22:18:00Z,26.8015,-97.4706,1.291,1111122 
TCOON,ioos:station:TCOON:003:1,2016-10-08T23:18:00Z,26.8015,-97.4706,1.293,1111122 
TCOON,ioos:station:TCOON:003:1,2016-10-09T00:18:00Z,26.8015,-97.4706,1.288,1111122 
TCOON,ioos:station:TCOON:003:1,2016-10-09T01:18:00Z,26.8015,-97.4706,1.289,1111122 
TCOON,ioos:station:TCOON:003:1,2016-10-09T02:18:00Z,26.8015,-97.4706,1.296,1111122 
TCOON,ioos:station:TCOON:003:1,2016-10-09T03:18:00Z,26.8015,-97.4706,1.305,1111122 
TCOON,ioos:station:TCOON:003:1,2016-10-09T04:18:00Z,26.8015,-97.4706,1.319,1111122 
TCOON,ioos:station:TCOON:003:1,2016-10-09T05:18:00Z,26.8015,-97.4706,1.331,1111122 
TCOON,ioos:station:TCOON:003:1,2016-10-09T06:24:00Z,26.8015,-97.4706,1.337,1111122 
TCOON,ioos:station:TCOON:003:1,2016-10-09T07:18:00Z,26.8015,-97.4706,1.336,1111122 
TCOON,ioos:station:TCOON:003:1,2016-10-09T08:18:00Z,26.8015,-97.4706,1.333,1111122 
TCOON,ioos:station:TCOON:003:1,2016-10-09T09:18:00Z,26.8015,-97.4706,1.326,1111122 
TCOON,ioos:station:TCOON:003:1,2016-10-09T10:18:00Z,26.8015,-97.4706,1.32,1111122 
TCOON,ioos:station:TCOON:003:1,2016-10-09T11:18:00Z,26.8015,-97.4706,1.325,1111122 
TCOON,ioos:station:TCOON:003:1,2016-10-09T12:18:00Z,26.8015,-97.4706,1.324,1111122 
TCOON,ioos:station:TCOON:003:1,2016-10-09T13:18:00Z,26.8015,-97.4706,1.319,1111122 
TCOON,ioos:station:TCOON:003:1,2016-10-09T14:18:00Z,26.8015,-97.4706,1.313,1111122 
TCOON,ioos:station:TCOON:003:1,2016-10-09T15:18:00Z,26.8015,-97.4706,1.335,1111122 
TCOON,ioos:station:TCOON:003:1,2016-10-09T16:18:00Z,26.8015,-97.4706,1.344,1111122 
TCOON,ioos:station:TCOON:003:1,2016-10-09T17:18:00Z,26.8015,-97.4706,1.343,1111122 
TCOON,ioos:station:TCOON:003:1,2016-10-09T18:18:00Z,26.8015,-97.4706,1.355,1111122 
TCOON,ioos:station:TCOON:003:1,2016-10-09T19:18:00Z,26.8015,-97.4706,1.352,1111122 
TCOON,ioos:station:TCOON:003:1,2016-10-09T20:18:00Z,26.8015,-97.4706,1.345,1111122 
TCOON,ioos:station:TCOON:003:1,2016-10-09T21:18:00Z,26.8015,-97.4706,1.336,1111122 
TCOON,ioos:station:TCOON:003:1,2016-10-09T22:18:00Z,26.8015,-97.4706,1.326,1111122 
TCOON,ioos:station:TCOON:003:1,2016-10-09T23:18:00Z,26.8015,-97.4706,1.325,1111122 
TCOON,ioos:station:TCOON:003:1,2016-10-10T00:18:00Z,26.8015,-97.4706,1.32,1111122 
TCOON,ioos:station:TCOON:003:1,2016-10-10T01:18:00Z,26.8015,-97.4706,1.318,1111122 
TCOON,ioos:station:TCOON:003:1,2016-10-10T02:18:00Z,26.8015,-97.4706,1.324,1111122 
TCOON,ioos:station:TCOON:003:1,2016-10-10T03:18:00Z,26.8015,-97.4706,1.337,1111122 
TCOON,ioos:station:TCOON:003:1,2016-10-10T04:18:00Z,26.8015,-97.4706,1.354,1111122 
TCOON,ioos:station:TCOON:003:1,2016-10-10T05:18:00Z,26.8015,-97.4706,1.368,1111122 
TCOON,ioos:station:TCOON:003:1,2016-10-10T06:18:00Z,26.8015,-97.4706,1.377,1111122 
TCOON,ioos:station:TCOON:003:1,2016-10-10T07:18:00Z,26.8015,-97.4706,1.378,1111122 
TCOON,ioos:station:TCOON:003:1,2016-10-10T08:18:00Z,26.8015,-97.4706,1.375,1111122 
TCOON,ioos:station:TCOON:003:1,2016-10-10T09:18:00Z,26.8015,-97.4706,1.373,1111122 
TCOON,ioos:station:TCOON:003:1,2016-10-10T10:18:00Z,26.8015,-97.4706,1.372,1111122 
TCOON,ioos:station:TCOON:003:1,2016-10-10T11:18:00Z,26.8015,-97.4706,1.365,1111122 
TCOON,ioos:station:TCOON:003:1,2016-10-10T12:18:00Z,26.8015,-97.4706,1.358,1111122 
TCOON,ioos:station:TCOON:003:1,2016-10-10T13:18:00Z,26.8015,-97.4706,1.352,1111122 
TCOON,ioos:station:TCOON:003:1,2016-10-10T14:18:00Z,26.8015,-97.4706,1.342,1111122 
TCOON,ioos:station:TCOON:003:1,2016-10-10T15:18:00Z,26.8015,-97.4706,1.34,1111122 
TCOON,ioos:station:TCOON:003:1,2016-10-10T16:18:00Z,26.8015,-97.4706,1.347,1111122 
TCOON,ioos:station:TCOON:003:1,2016-10-10T17:18:00Z,26.8015,-97.4706,1.363,1111122 
TCOON,ioos:station:TCOON:003:1,2016-10-10T18:18:00Z,26.8015,-97.4706,1.379,1111122 
TCOON,ioos:station:TCOON:003:1,2016-10-10T19:18:00Z,26.8015,-97.4706,1.374,1111122 
TCOON,ioos:station:TCOON:003:1,2016-10-10T20:18:00Z,26.8015,-97.4706,1.373,1111122 
TCOON,ioos:station:TCOON:003:1,2016-10-10T21:18:00Z,26.8015,-97.4706,1.367,1111122 
TCOON,ioos:station:TCOON:003:1,2016-10-10T22:18:00Z,26.8015,-97.4706,1.358,1111122 
TCOON,ioos:station:TCOON:003:1,2016-10-10T23:18:00Z,26.8015,-97.4706,1.361,1111122 
TCOON,ioos:station:TCOON:003:1,2016-10-11T00:18:00Z,26.8015,-97.4706,1.356,1111122 
TCOON,ioos:station:TCOON:003:1,2016-10-11T01:18:00Z,26.8015,-97.4706,1.35,1111122 
TCOON,ioos:station:TCOON:003:1,2016-10-11T02:18:00Z,26.8015,-97.4706,1.35,1111122 
TCOON,ioos:station:TCOON:003:1,2016-10-11T03:18:00Z,26.8015,-97.4706,1.355,1111122 
TCOON,ioos:station:TCOON:003:1,2016-10-11T04:18:00Z,26.8015,-97.4706,1.362,1111122 
TCOON,ioos:station:TCOON:003:1,2016-10-11T05:18:00Z,26.8015,-97.4706,1.364,1111122 
TCOON,ioos:station:TCOON:003:1,2016-10-11T06:18:00Z,26.8015,-97.4706,1.375,1111122 
TCOON,ioos:station:TCOON:003:1,2016-10-11T07:12:00Z,26.8015,-97.4706,1.382,1111122 
TCOON,ioos:station:TCOON:003:1,2016-10-11T08:18:00Z,26.8015,-97.4706,1.392,1111122 
TCOON,ioos:station:TCOON:003:1,2016-10-11T09:18:00Z,26.8015,-97.4706,1.383,1111122 
TCOON,ioos:station:TCOON:003:1,2016-10-11T10:18:00Z,26.8015,-97.4706,1.371,1111122 
TCOON,ioos:station:TCOON:003:1,2016-10-11T11:18:00Z,26.8015,-97.4706,1.359,1111122 
TCOON,ioos:station:TCOON:003:1,2016-10-11T12:18:00Z,26.8015,-97.4706,1.351,1111122 
TCOON,ioos:station:TCOON:003:1,2016-10-11T13:18:00Z,26.8015,-97.4706,1.35,1111122 
TCOON,ioos:station:TCOON:003:1,2016-10-11T14:18:00Z,26.8015,-97.4706,1.342,1111122 
TCOON,ioos:station:TCOON:003:1,2016-10-11T15:18:00Z,26.8015,-97.4706,1.35,1111122 
TCOON,ioos:station:TCOON:003:1,2016-10-11T16:18:00Z,26.8015,-97.4706,1.354,1111122 
TCOON,ioos:station:TCOON:003:1,2016-10-11T17:18:00Z,26.8015,-97.4706,1.371,1111122 
TCOON,ioos:station:TCOON:003:1,2016-10-11T18:18:00Z,26.8015,-97.4706,1.385,1111122 
TCOON,ioos:station:TCOON:003:1,2016-10-11T19:18:00Z,26.8015,-97.4706,1.391,1111122 
TCOON,ioos:station:TCOON:003:1,2016-10-11T20:18:00Z,26.8015,-97.4706,1.402,1111122 
TCOON,ioos:station:TCOON:003:1,2016-10-11T21:24:00Z,26.8015,-97.4706,1.4,1111122 
TCOON,ioos:station:TCOON:003:1,2016-10-11T22:18:00Z,26.8015,-97.4706,1.394,1111122 
TCOON,ioos:station:TCOON:003:1,2016-10-11T23:18:00Z,26.8015,-97.4706,1.395,1111122 
TCOON,ioos:station:TCOON:003:1,2016-10-12T00:18:00Z,26.8015,-97.4706,1.391,1111122 
TCOON,ioos:station:TCOON:003:1,2016-10-12T01:18:00Z,26.8015,-97.4706,1.388,1111122 
TCOON,ioos:station:TCOON:003:1,2016-10-12T02:18:00Z,26.8015,-97.4706,1.383,1111122 
TCOON,ioos:station:TCOON:003:1,2016-10-12T03:18:00Z,26.8015,-97.4706,1.38,1111122 
TCOON,ioos:station:TCOON:003:1,2016-10-12T04:18:00Z,26.8015,-97.4706,1.381,1111122 
TCOON,ioos:station:TCOON:003:1,2016-10-12T05:18:00Z,26.8015,-97.4706,1.387,1111122 
TCOON,ioos:station:TCOON:003:1,2016-10-12T06:18:00Z,26.8015,-97.4706,1.399,1111122 
TCOON,ioos:station:TCOON:003:1,2016-10-12T07:18:00Z,26.8015,-97.4706,1.408,1111122 
TCOON,ioos:station:TCOON:003:1,2016-10-12T08:18:00Z,26.8015,-97.4706,1.412,1111122 
TCOON,ioos:station:TCOON:003:1,2016-10-12T09:18:00Z,26.8015,-97.4706,1.411,1111122 
TCOON,ioos:station:TCOON:003:1,2016-10-12T10:18:00Z,26.8015,-97.4706,1.397,1111122 
TCOON,ioos:station:TCOON:003:1,2016-10-12T11:18:00Z,26.8015,-97.4706,1.376,1111122 
TCOON,ioos:station:TCOON:003:1,2016-10-12T12:18:00Z,26.8015,-97.4706,1.362,1111122 
TCOON,ioos:station:TCOON:003:1,2016-10-12T13:18:00Z,26.8015,-97.4706,1.362,1111122 
TCOON,ioos:station:TCOON:003:1,2016-10-12T14:18:00Z,26.8015,-97.4706,1.364,1111122 
TCOON,ioos:station:TCOON:003:1,2016-10-12T15:18:00Z,26.8015,-97.4706,1.373,1111122 
TCOON,ioos:station:TCOON:003:1,2016-10-12T16:18:00Z,26.8015,-97.4706,1.388,1111122 
TCOON,ioos:station:TCOON:003:1,2016-10-12T17:18:00Z,26.8015,-97.4706,1.408,1111122 
TCOON,ioos:station:TCOON:003:1,2016-10-12T18:18:00Z,26.8015,-97.4706,1.417,1111122 
TCOON,ioos:station:TCOON:003:1,2016-10-12T19:18:00Z,26.8015,-97.4706,1.417,1111122 
TCOON,ioos:station:TCOON:003:1,2016-10-12T20:18:00Z,26.8015,-97.4706,1.434,1111122 
TCOON,ioos:station:TCOON:003:1,2016-10-12T21:24:00Z,26.8015,-97.4706,1.451,1111122 
TCOON,ioos:station:TCOON:003:1,2016-10-12T22:18:00Z,26.8015,-97.4706,1.456,1111122 
TCOON,ioos:station:TCOON:003:1,2016-10-12T23:24:00Z,26.8015,-97.4706,1.469,1111122 